TIME,DELAY(SENSOR),PRES,OXYGEN,RAWTEMP,T(OPTODE),TCPHASE,FLUOR,BETA(BETA700),BETA(BETA412),BETA(BETA440),CDOM,C(CSC),ED(ED412.20),ED(ED444.00),ED(ED489.60),ED(ED554.30),LU(LU412.10),LU(LU443.90),LU(LU489.70),LU(LU554.70),COMP,TILTX,TILTY,CHECK
1351998946,5805,894.4500122070312000,29.8298206329345700,558.8233032226562000,4.5223579406738280,57.1111106872558600,55,99,100,78,82,15534,0,0,0,0,2147123858,2147768758,2147571273,2147569243,2039,3,13,45544
1352002542,5810,959.7299804687500000,36.1439094543457000,561.7686157226562000,4.4310722351074220,56.1188316345214840,54,99,100,78,82,15515,0,0,0,0,2147126738,2147775744,2147573046,2147568841,3330,3,13,6648
1352006142,5807,966.1799926757812000,38.0184097290039060,562.2125244140625000,4.4173069000244140,55.8351898193359400,54,98,100,78,81,15524,0,0,0,0,2147124708,2147775588,2147572470,2147574281,400,3,13,53830
1352009742,5810,995.6500244140625000,38.7479515075683600,564.4385986328125000,4.3482527732849120,55.7429199218750000,55,98,100,78,81,15526,0,0,0,0,2147126976,2147774573,2147572800,2147569142,3469,3,13,48035
1352013342,5807,997.5499877929688000,37.2074508666992200,566.8148193359375000,4.2744998931884770,56.0088615417480500,54,96,100,78,83,15521,0,0,0,0,2147123044,2147769289,2147571593,2147570386,324,3,13,24882
1352016942,5812,1000.6199951171875000,37.5944595336914060,567.7443847656250000,4.2456321716308590,55.9575805664062500,55,99,101,79,82,15525,0,0,0,0,2147123081,2147769462,2147575753,2147570148,43,3,13,43395
1352020542,5809,1005.5300292968750000,36.6432685852050800,568.0394287109375000,4.2364730834960940,56.1053810119628900,56,98,100,79,83,15523,0,0,0,0,2147124342,2147772918,2147572964,2147566308,84,3,13,8494
1352024142,5810,1002.8599853515625000,36.7572593688964840,568.4370117187500000,4.2241210937500000,56.0894508361816400,55,102,101,79,82,15524,0,0,0,0,2147125330,2147769947,2147576813,2147568000,3311,3,13,59823
1352027742,5810,1002.1699829101562000,36.7499694824218750,568.5374145507812000,4.2210030555725100,56.0933113098144500,55,99,101,78,83,15522,0,0,0,0,2147126089,2147766884,2147574701,2147569526,3308,3,13,26144
1352031342,5809,996.9099731445312000,36.9701805114746100,568.8029174804688000,4.2127571105957030,56.0624008178710940,55,101,100,79,82,15522,0,0,0,0,2147124059,2147769792,2147575478,2147571200,3115,3,13,21912
1352034942,5807,1001.2299804687500000,37.1416511535644500,568.7628173828125000,4.2140011787414550,56.0333595275878900,55,104,101,77,82,15521,0,0,0,0,2147121618,2147777005,2147578102,2147571008,64,3,13,57858
1352038542,5812,1001.6500244140625000,37.7067985534668000,569.1848144531250000,4.2008929252624510,55.9529304504394500,56,98,101,78,83,15520,0,0,0,0,2147124123,2147776091,2147577508,2147570194,3331,3,12,21243
1352042142,5810,1004.4699707031250000,37.4903182983398440,568.9382934570312000,4.2085490226745605,55.9826698303222660,55,99,101,78,82,15524,0,0,0,0,2147123565,2147777536,2147574939,2147574016,3570,3,13,12919
1352045742,5812,1008.1900024414062000,36.7903709411621100,568.6591796875000000,4.2172179222106930,56.0852890014648440,55,98,100,77,82,15520,0,0,0,0,2147126710,2147772214,2147576301,2147571035,75,3,13,23848
1352049342,5809,1007.5999755859375000,36.8436584472656250,568.2564697265625000,4.2297267913818360,56.0789604187011700,55,98,99,79,82,15517,0,0,0,0,2147125961,2147772105,2147571355,2147571410,503,3,13,48521
1352052942,5811,1011.0700073242188000,36.7757110595703100,568.7567749023438000,4.2141861915588380,56.0941810607910160,55,100,102,78,83,15517,0,0,0,0,2147126290,2147776448,2147573467,2147572086,186,3,13,34300
1352056542,5809,1012.6400146484375000,36.4716796875000000,568.4183959960938000,4.2246990203857420,56.1382217407226560,53,98,101,79,82,15510,0,0,0,0,2147124278,2147769481,2147578048,2147568219,94,3,12,39459
1352060142,5811,1008.4299926757812000,36.3850784301757800,567.7263183593750000,4.2461972236633300,56.1410217285156250,56,99,100,77,82,15514,0,0,0,0,2147123648,2147773010,2147576265,2147569755,67,3,13,2304
1352063742,5811,1012.6699829101562000,36.1908187866210940,568.4213256835938000,4.2246088981628420,56.1811714172363300,55,99,104,78,82,15520,0,0,0,0,2147124882,2147774482,2147574070,2147569718,283,3,13,7963
1352067342,5813,1011.7399902343750000,36.5926208496093750,567.7694702148438000,4.2448520660400390,56.1133995056152340,55,99,100,78,83,15519,0,0,0,0,2147123108,2147771986,2147569746,2147568466,9,3,13,53987
1352070942,5806,1008.4899902343750000,36.3217506408691400,568.2984008789062000,4.2284259796142580,56.1562614440918000,55,96,101,77,83,15502,0,0,0,0,2147125613,2147777910,2147576548,2147570761,338,3,13,56200
1352074542,5811,1011.8300170898438000,37.2312507629394500,568.8718261718750000,4.2106170654296875,56.0259513854980500,54,99,101,79,83,15517,0,0,0,0,2147123200,2147772178,2147573549,2147568649,281,3,13,29176
1352078142,5809,1009.1799926757812000,36.3340301513671900,568.8356933593750000,4.2117371559143070,56.1618003845214840,55,97,100,79,83,15516,0,0,0,0,2147124653,2147769773,2147576320,2147569179,139,3,13,46753
1352081742,5810,1008.5700073242188000,37.1522598266601560,569.2523803710938000,4.1987919807434080,56.0422706604003900,55,97,106,78,81,15516,0,0,0,0,2147124187,2147775350,2147577106,2147566656,130,3,13,14472
1352085342,5810,1001.4199829101562000,37.3684196472168000,569.3828735351562000,4.1947360038757320,56.0097007751464840,54,98,100,78,83,15512,0,0,0,0,2147127789,2147771885,2147578130,2147568758,3451,3,13,20378
1352088942,5810,1009.5499877929688000,37.3982391357421900,569.7136230468750000,4.1844620704650880,56.0033302307128900,55,98,100,78,81,15515,0,0,0,0,2147124790,2147768128,2147573860,2147568009,3274,3,13,32405
1352092542,5811,1010.4400024414062000,36.9552497863769500,569.4503173828125000,4.1926441192626950,56.0675811767578100,55,98,100,81,81,15516,0,0,0,0,2147125202,2147768740,2147573193,2147571291,15,3,13,51899
1352096142,5812,1012.6099853515625000,37.4706192016601560,569.2183227539062000,4.1998519897460940,55.9894294738769500,55,98,100,77,83,15507,0,0,0,0,2147125302,2147775579,2147573248,2147568923,3363,3,13,6245
1352099742,5810,1016.8400268554688000,37.2963294982910160,568.8380737304688000,4.2116618156433105,56.0139198303222660,55,99,100,77,82,15513,0,0,0,0,2147124690,2147775058,2147570221,2147569673,138,3,13,12915
1352103342,5812,1011.2199707031250000,36.7462806701660160,568.7714843750000000,4.2137298583984375,56.0956001281738300,55,100,100,78,82,15516,0,0,0,0,2147122084,2147776475,2147567853,2147566866,112,3,13,47335
1352106942,5809,1014.1300048828125000,36.5275192260742200,568.7725830078125000,4.2136960029602050,56.1324882507324200,54,99,100,77,82,15517,0,0,0,0,2147127899,2147773696,2147578633,2147567003,3550,3,13,56000
1352110542,5809,1015.3200073242188000,37.4209213256835940,568.9041748046875000,4.2096080780029300,55.9917297363281250,56,98,101,78,82,15514,0,0,0,0,2147122816,2147770066,2147574756,2147568969,3426,3,13,32158
1352114142,5812,1014.0000000000000000,36.5026817321777340,568.7593994140625000,4.2141079902648930,56.1376495361328100,55,99,101,78,83,15517,0,0,0,0,2147121682,2147772379,2147573577,2147566500,98,3,13,23168
1352117742,5808,1017.3300170898438000,36.4138107299804700,568.6527709960938000,4.2174191474914550,56.1487617492675800,56,97,101,78,82,15511,0,0,0,0,2147125485,2147775296,2147570578,2147569353,3593,3,13,48494
1352121342,5810,1017.5999755859375000,36.7445793151855500,568.9215698242188000,4.2090678215026855,56.1017799377441400,55,99,101,78,83,15513,0,0,0,0,2147122898,2147771520,2147574756,2147568301,2014,3,13,5418
1352124942,5809,1012.1699829101562000,36.7659492492675800,569.1868896484375000,4.2008252143859860,56.1011505126953100,54,98,100,77,82,15512,0,0,0,0,2147125074,2147770459,2147573842,2147571200,1172,3,13,50388
1352128542,5809,1012.6300048828125000,37.2578086853027340,569.3179931640625000,4.1967530250549320,56.0231513977050800,54,97,99,78,82,15515,0,0,0,0,2147125165,2147770953,2147572699,2147568585,3574,3,13,30801
1352132142,5808,1011.0200195312500000,36.9178810119628900,569.2706298828125000,4.1982269287109375,56.0767097473144500,55,98,100,78,82,15513,0,0,0,0,2147121801,2147772809,2147578761,2147568978,7,3,13,33824
1352135742,5807,1012.7000122070312000,36.9140892028808600,569.2579956054688000,4.1986179351806640,56.0732994079589840,55,99,99,77,83,15513,0,0,0,0,2147122486,2147777609,2147579062,2147567744,159,3,13,29600
1352139342,5810,1015.3099975585938000,36.7277412414550800,569.2564697265625000,4.1986618041992190,56.1025390625000000,56,97,101,79,82,15515,0,0,0,0,2147122934,2147775725,2147576374,2147569846,12,3,13,41220
1352142942,5809,1018.2700195312500000,36.7765083312988300,569.0587768554688000,4.2048029899597170,56.0935592651367200,56,98,100,78,82,15503,0,0,0,0,2147124772,2147773302,2147572306,2147570240,3479,3,13,22931
1352143555,5812,1017.5599975585938000,37.1651802062988300,568.9199829101562000,4.2091178894042970,56.0367088317871100,56,97,103,78,83,15509,0,0,0,0,2147125330,2147773504,2147569563,2147567424,2969,3,13,44514
